Rockingham, NC

11:17 AM EDT on October 17, 2017 (GMT -0400)
Rockingham

Weather History for KRCZ - July, 2013

Change the Weather History Date:

Monday, July 1, 2013

  Actual Average (KHFF) Record (KHFF)
Temperature  
Mean Temperature 76 °F -  
Max Temperature 82 °F 87 °F 104 °F (2012)
Min Temperature 70 °F 70 °F 63 °F (2008)
Cooling Degree Days 11    
Growing Degree Days 26 (Base 50)    
Moisture  
Dew Point 71 °F    
Average Humidity 92    
Maximum Humidity 100    
Minimum Humidity 66    
Precipitation  
Precipitation 0.72 in - - ()
Sea Level Pressure  
Sea Level Pressure 29.92 in    
Wind  
Wind Speed 4 mph (SSE)    
Max Wind Speed 13 mph    
Max Gust Speed 22 mph    
Visibility 9 miles    
Events Rain    
Averages and records for this station are not official NWS values.
T = Trace of Precipitation, MM = Missing Value Source: NWS Daily Summary

Daily Weather History Graph

Daily Weather History Graph

Search for Another Location

Airport or City:

Trip Planner

Search our weather history database for the weather conditions in past years. The results will help you decide how hot, cold, wet, or windy it might be!

Date:

Astronomy

Jul. 01, 2013 Rise Set
Actual Time 6:09 AM EDT 8:36 PM EDT
Civil Twilight 5:39 AM EDT 9:06 PM EDT
Nautical Twilight 5:03 AM EDT 9:42 PM EDT
Astronomical Twilight 4:23 AM EDT 10:22 PM EDT
Moon 1:29 AM EDT (7/1) 2:57 PM EDT (7/1)
Length of Visible Light 15h 26m
Length of Day
14h 27m
Waning Crescent, 35% of the Moon is Illuminated
Jul 1
Waning Crescent
Jul 8
New
Jul 15
First Quarter
Jul 22
Full
Jul 29
Last Quarter

Hourly Weather History & Observations

Time (EDT) Temp. Heat Index Dew Point Humidity Pressure Visibility Wind Dir Wind Speed Gust Speed Precip Events Conditions
12:15 AM 71.6 °F - 71.6 °F 100% 29.86 in 10.0 mi Calm Calm - N/A   Scattered Clouds
12:35 AM 71.8 °F - 71.8 °F 100% 29.86 in 10.0 mi SE 6.9 mph - N/A   Scattered Clouds
12:55 AM 72.0 °F - 72.0 °F 100% 29.86 in 10.0 mi SE 6.9 mph - N/A   Scattered Clouds
1:15 AM 71.8 °F - 71.6 °F 99% 29.86 in 10.0 mi SSE 6.9 mph - N/A   Mostly Cloudy
1:35 AM 71.8 °F - 71.6 °F 99% 29.86 in 10.0 mi South 3.5 mph - N/A   Mostly Cloudy
1:55 AM 71.6 °F - 71.6 °F 100% 29.87 in 10.0 mi Calm Calm - N/A   Overcast
2:15 AM 71.6 °F - 71.4 °F 99% 29.86 in 10.0 mi Calm Calm - N/A   Overcast
2:35 AM 71.6 °F - 71.1 °F 98% 29.86 in 10.0 mi Calm Calm - N/A   Overcast
2:55 AM 71.6 °F - 71.2 °F 99% 29.86 in 7.0 mi Calm Calm - N/A   Overcast
3:15 AM 71.6 °F - 71.2 °F 99% 29.85 in 7.0 mi Calm Calm - N/A   Overcast
3:35 AM 71.6 °F - 71.2 °F 99% 29.85 in 10.0 mi Calm Calm - 0.01 in   Overcast
3:55 AM 71.6 °F - 71.1 °F 98% 29.85 in 10.0 mi SE 3.5 mph - 0.01 in   Overcast
4:15 AM 71.8 °F - 71.2 °F 98% 29.85 in 10.0 mi SSE 3.5 mph - N/A   Overcast
4:35 AM 71.8 °F - 71.6 °F 99% 29.85 in 10.0 mi SE 3.5 mph - N/A   Overcast
4:55 AM 71.8 °F - 71.6 °F 99% 29.84 in 4.0 mi ESE 4.6 mph - 0.05 in Rain Heavy Rain
5:15 AM 71.8 °F - 71.8 °F 100% 29.87 in 3.0 mi WSW 10.4 mph - 0.14 in Rain Heavy Rain
5:35 AM 71.6 °F - 71.6 °F 100% 29.87 in 5.0 mi WSW 5.8 mph - 0.43 in Rain Light Rain
5:55 AM 71.1 °F - 71.1 °F 100% 29.87 in 10.0 mi Calm Calm - 0.43 in Rain Light Rain
6:15 AM 70.7 °F - 70.7 °F 100% 29.90 in 10.0 mi SSW 5.8 mph - 0.01 in Rain Rain
6:35 AM 70.3 °F - 70.3 °F 100% 29.88 in 10.0 mi Calm Calm - 0.07 in Rain Rain
6:55 AM 70.2 °F - 70.2 °F 100% 29.89 in 10.0 mi Calm Calm - 0.09 in Rain Light Rain
7:15 AM 70.0 °F - 70.0 °F 100% 29.89 in 10.0 mi Calm Calm - N/A   Clear
7:35 AM 70.3 °F - 70.2 °F 99% 29.91 in 10.0 mi Calm Calm - N/A   Scattered Clouds
7:55 AM 70.7 °F - 70.7 °F 100% 29.92 in 7.0 mi Calm Calm - N/A Rain Rain
8:15 AM 70.7 °F - 70.7 °F 100% 29.92 in 10.0 mi Calm Calm - 0.01 in Rain Light Rain
8:35 AM 71.1 °F - 70.7 °F 99% 29.92 in 10.0 mi Calm Calm - 0.02 in Rain Light Rain
8:55 AM 71.4 °F - 70.7 °F 98% 29.92 in 10.0 mi Calm Calm - 0.02 in   Scattered Clouds
9:15 AM 72.0 °F - 70.3 °F 95% 29.92 in 10.0 mi Calm Calm - N/A   Mostly Cloudy
9:35 AM 72.0 °F - 70.7 °F 96% 29.93 in 10.0 mi Calm Calm - N/A   Overcast
9:55 AM 72.0 °F - 70.7 °F 96% 29.94 in 5.0 mi SE 4.6 mph - N/A Rain Light Rain
10:15 AM 71.8 °F - 70.9 °F 97% 29.93 in 4.0 mi ESE 5.8 mph - 0.06 in Rain Rain
10:35 AM 71.6 °F - 69.6 °F 93% 29.93 in 5.0 mi ESE 3.5 mph - 0.06 in Rain Rain
10:55 AM 71.8 °F - 70.0 °F 94% 29.93 in 7.0 mi Calm Calm - 0.07 in   Drizzle
11:15 AM 72.1 °F - 71.1 °F 96% 29.94 in 7.0 mi ESE 3.5 mph - N/A   Light Drizzle
11:35 AM 72.7 °F - 71.4 °F 96% 29.94 in 5.0 mi Calm Calm - N/A Rain Rain
11:55 AM 72.9 °F - 70.5 °F 92% 29.94 in 10.0 mi East 3.5 mph - N/A   Overcast
12:15 PM 73.2 °F - 71.4 °F 94% 29.94 in 7.0 mi Calm Calm - N/A   Overcast
12:35 PM 74.3 °F - 70.7 °F 88% 29.94 in 10.0 mi ESE 4.6 mph - N/A   Overcast
12:55 PM 76.1 °F - 70.5 °F 83% 29.94 in 10.0 mi SE 3.5 mph - N/A   Overcast
1:15 PM 76.5 °F - 70.0 °F 80% 29.94 in 10.0 mi South 3.5 mph - N/A   Overcast
1:35 PM 76.3 °F - 70.5 °F 82% 29.95 in 10.0 mi SSW 5.8 mph - N/A   Overcast
1:55 PM 76.8 °F - 71.2 °F 83% 29.95 in 10.0 mi Calm Calm - N/A   Overcast
2:15 PM 77.5 °F - 71.2 °F 81% 29.94 in 10.0 mi Calm Calm - N/A   Overcast
2:35 PM 79.9 °F - 71.4 °F 75% 29.94 in 10.0 mi Calm Calm - N/A   Scattered Clouds
2:55 PM 80.4 °F 84.1 °F 71.1 °F 73% 29.92 in 10.0 mi South 3.5 mph - N/A   Scattered Clouds
3:15 PM 81.9 °F 86.6 °F 72.0 °F 72% 29.92 in 10.0 mi SE 5.8 mph - N/A   Mostly Cloudy
3:35 PM 82.8 °F 87.2 °F 70.7 °F 67% 29.91 in 10.0 mi South 5.8 mph - N/A   Scattered Clouds
3:55 PM 82.4 °F 86.7 °F 70.9 °F 68% 29.92 in 10.0 mi South 6.9 mph - N/A   Mostly Cloudy
4:15 PM 82.9 °F 87.2 °F 70.3 °F 66% 29.92 in 10.0 mi South 5.8 mph - N/A   Scattered Clouds
4:35 PM 82.6 °F 86.6 °F 70.2 °F 66% 29.91 in 10.0 mi South 5.8 mph - N/A   Clear
4:55 PM 82.8 °F 87.4 °F 71.4 °F 68% 29.92 in 10.0 mi SSE 5.8 mph - N/A   Clear
5:15 PM 82.4 °F 87.0 °F 71.2 °F 69% 29.93 in 10.0 mi South 5.8 mph - N/A   Mostly Cloudy
5:35 PM 81.7 °F 86.5 °F 72.1 °F 73% 29.92 in 10.0 mi SSE 4.6 mph - N/A   Scattered Clouds
5:55 PM 81.0 °F 85.4 °F 72.5 °F 75% 29.93 in 10.0 mi South 3.5 mph - N/A   Clear
6:15 PM 78.4 °F - 71.8 °F 80% 29.95 in 10.0 mi SSE 11.5 mph 21.9 mph N/A   Scattered Clouds
6:35 PM 76.1 °F - 71.6 °F 86% 29.95 in 10.0 mi SSE 11.5 mph 17.3 mph N/A Rain Light Rain
6:55 PM 74.3 °F - 72.5 °F 94% 29.96 in 10.0 mi South 9.2 mph - 0.01 in Rain Light Rain
7:15 PM 73.6 °F - 72.5 °F 96% 29.95 in 10.0 mi SE 11.5 mph - 0.01 in Rain Light Rain
7:35 PM 73.8 °F - 72.7 °F 96% 29.96 in 7.0 mi SSE 11.5 mph 19.6 mph 0.02 in Rain Light Rain
7:55 PM 73.4 °F - 72.5 °F 97% 29.97 in 10.0 mi SSE 8.1 mph - 0.03 in Rain Light Rain
8:15 PM 72.9 °F - 72.0 °F 97% 29.96 in 10.0 mi SE 10.4 mph - N/A Rain Light Rain
8:35 PM 72.9 °F - 72.3 °F 98% 29.96 in 10.0 mi SSE 10.4 mph 16.1 mph 0.01 in   Light Drizzle
8:55 PM 72.9 °F - 71.8 °F 96% 29.97 in 10.0 mi SSE 12.7 mph - 0.01 in   Light Drizzle
9:15 PM 73.0 °F - 71.6 °F 95% 29.98 in 10.0 mi SSE 12.7 mph - N/A   Clear
9:35 PM 72.9 °F - 71.8 °F 96% 29.98 in 10.0 mi SSE 9.2 mph - N/A   Clear
9:55 PM 72.9 °F - 71.6 °F 96% 29.99 in 10.0 mi SSE 9.2 mph - N/A   Clear
10:15 PM 72.9 °F - 71.6 °F 96% 30.00 in 10.0 mi SSE 9.2 mph - N/A   Scattered Clouds
10:35 PM 72.5 °F - 71.6 °F 97% 30.00 in 10.0 mi SSE 10.4 mph - N/A   Scattered Clouds
10:55 PM 72.1 °F - 71.1 °F 96% 30.00 in 10.0 mi SE 8.1 mph - N/A   Scattered Clouds
11:15 PM 72.0 °F - 71.1 °F 97% 30.01 in 10.0 mi South 6.9 mph - N/A   Mostly Cloudy
11:35 PM 71.8 °F - 71.1 °F 98% 30.01 in 10.0 mi SSE 9.2 mph - N/A   Mostly Cloudy
11:55 PM 71.8 °F - 71.1 °F 98% 30.02 in 10.0 mi South 8.1 mph - N/A   Scattered Clouds